Location: Mactaquac Provincial Park
(45.9573°N, 66.8897°W)
Time: 11:16:53
(UTC-03:00)

Cosmos 1867 - Visible Passes

Search period start: 31 October 2014 00:00
Search period end: 09 November 2014 23:00
Orbit: 778 x 798 km, 65.0° (Epoch: 30 October)

Date Brightness Start Highest point End Pass type
(mag) Time Alt. Az. Time Alt. Az. Time Alt. Az.
31 Oct 5.8 05:03:27 16° N 05:03:27 16° N 05:05:05 10° NNE visible
31 Oct 5.9 06:46:42 10° N 06:46:58 10° N 06:47:14 10° N visible
01 Nov 6.1 04:32:52 13° NNE 04:32:52 13° NNE 04:33:37 10° NNE visible
01 Nov 5.8 06:13:47 10° NNW 06:14:56 11° N 06:16:06 10° N visible
02 Nov 5.8 04:42:55 12° NNW 04:42:56 12° NNW 04:44:44 10° N visible
02 Nov 5.9 06:27:30 10° N 06:29:10 11° NNE 06:30:49 10° NNE visible
03 Nov 6.0 04:12:18 12° N 04:12:18 12° N 04:13:20 10° N visible
03 Nov 5.9 05:56:09 10° N 05:57:09 10° N 05:58:08 10° NNE visible
04 Nov 6.2 03:41:41 11° N 03:41:41 11° N 03:41:55 10° N visible
05 Nov 5.8 06:35:41 10° NNW 06:39:07 17° NNE 06:42:32 10° ENE visible
06 Nov 5.8 06:04:15 10° N 06:07:11 14° NNE 06:10:07 10° NE visible
07 Nov 5.9 05:32:50 10° N 05:35:14 13° NNE 05:37:37 10° NE visible
08 Nov 6.0 05:01:26 10° N 05:03:14 12° NNE 05:05:02 10° NNE visible
08 Nov 5.2 06:44:01 10° NNW 06:48:44 29° NE 06:53:24 10° E visible
09 Nov 6.1 04:30:04 10° N 04:31:14 11° N 04:32:23 10° NNE visible
09 Nov 5.4 06:12:33 10° NNW 06:16:55 24° NE 06:21:16 10° E visible
